Weather History for Monett, MO

Change the Weather History Date:

Thursday, February 14, 2013

  Actual Average (KJLN) Record (KJLN)
Temperature  
Mean Temperature 42 °F 40 °F  
Max Temperature 51 °F 50 °F 76 °F (1954)
Min Temperature 32 °F 29 °F 9 °F (1986)
Degree Days  
Heating Degree Days 24 25  
Month to date heating degree days 380  
Since 1 July heating degree days 2929  
Cooling Degree Days 0 0  
Month to date cooling degree days 0  
Year to date cooling degree days 0  
Moisture  
Dew Point 30 °F    
Average Humidity 65    
Maximum Humidity 81    
Minimum Humidity 44    
Precipitation  
Precipitation 0.00 in 0.08 in 1.54 in (1992)
Month to date precipitation 1.06  
Year to date precipitation 3.09  
Sea Level Pressure  
Sea Level Pressure 30.02 in    
Wind  
Wind Speed 7 mph (West)    
Max Wind Speed 13 mph    
Max Gust Speed -    
Visibility 10 miles    
Events      
T = Trace of Precipitation, MM = Missing Value Source: NWS Daily Summary

Daily Weather History Graph

Daily Weather History Graph

Search for Another Location

Airport:

Trip Planner

Search our weather history database for the weather conditions in past years. The results will help you decide how hot, cold, wet, or windy it might be!

Date:

Astronomy

Feb. 14, 2013 Rise Set
Actual Time 7:05 AM CST 5:55 PM CST
Civil Twilight 6:38 AM CST 6:22 PM CST
Nautical Twilight 6:08 AM CST 6:52 PM CST
Astronomical Twilight 5:38 AM CST 7:22 PM CST
Moon 9:16 AM CST (2/14) 10:49 PM CST (2/14)
Length of Visible Light 11h 43m
Length of Day
10h 50m
Waxing Crescent, 22% of the Moon is Illuminated
Feb 14
Waxing Crescent
Feb 17
First Quarter
Feb 25
Full
Mar 4
Last Quarter
Mar 11
New

Hourly Weather History & Observations

Time (CST) Temp. Windchill Dew Point Humidity Pressure Visibility Wind Dir Wind Speed Gust Speed Precip Events Conditions
12:15 AM 35.6 °F 29.9 °F 30.2 °F 81% 29.92 in 10.0 mi SW 6.9 mph - N/A   Clear
12:35 AM 35.6 °F 29.9 °F 30.2 °F 81% 29.92 in 10.0 mi SW 6.9 mph - N/A   Clear
12:55 AM 35.6 °F 29.2 °F 30.2 °F 81% 29.93 in 10.0 mi SW 8.1 mph - N/A   Clear
1:15 AM 35.6 °F 30.7 °F 30.2 °F 81% 29.93 in 10.0 mi SW 5.8 mph - N/A   Clear
1:35 AM 35.6 °F 29.9 °F 30.2 °F 81% 29.93 in 10.0 mi SW 6.9 mph - N/A   Clear
1:55 AM 35.6 °F 30.7 °F 30.2 °F 81% 29.93 in 10.0 mi SSW 5.8 mph - N/A   Clear
2:15 AM 33.8 °F 28.6 °F 28.4 °F 81% 29.93 in 10.0 mi SSW 5.8 mph - N/A   Clear
2:35 AM 33.8 °F 29.6 °F 28.4 °F 81% 29.93 in 10.0 mi SSW 4.6 mph - N/A   Clear
2:55 AM 33.8 °F 28.6 °F 28.4 °F 81% 29.93 in 10.0 mi SSW 5.8 mph - N/A   Clear
3:15 AM 33.8 °F 27.0 °F 28.4 °F 81% 29.92 in 10.0 mi SSW 8.1 mph - N/A   Clear
3:35 AM 33.8 °F 27.7 °F 28.4 °F 81% 29.92 in 10.0 mi SSW 6.9 mph - N/A   Clear
3:55 AM 33.8 °F 27.0 °F 26.6 °F 75% 29.92 in 10.0 mi SSW 8.1 mph - N/A   Clear
4:15 AM 33.8 °F 27.0 °F 26.6 °F 75% 29.92 in 10.0 mi SSW 8.1 mph - N/A   Clear
4:35 AM 33.8 °F 27.0 °F 26.6 °F 75% 29.92 in 10.0 mi SSW 8.1 mph - N/A   Clear
4:55 AM 33.8 °F 27.0 °F 26.6 °F 75% 29.92 in 10.0 mi SSW 8.1 mph - N/A   Clear
5:15 AM 33.8 °F 26.4 °F 26.6 °F 75% 29.92 in 10.0 mi SSW 9.2 mph - N/A   Clear
5:35 AM 33.8 °F 27.0 °F 26.6 °F 75% 29.92 in 10.0 mi SSW 8.1 mph - N/A   Clear
5:55 AM 33.8 °F 27.0 °F 26.6 °F 75% 29.93 in 10.0 mi SW 8.1 mph - N/A   Clear
6:15 AM 33.8 °F 27.7 °F 26.6 °F 75% 29.94 in 10.0 mi SW 6.9 mph - N/A   Clear
6:35 AM 32.0 °F 25.6 °F 26.6 °F 80% 29.94 in 10.0 mi SSW 6.9 mph - N/A   Clear
6:55 AM 32.0 °F 25.6 °F 26.6 °F 80% 29.95 in 10.0 mi SSW 6.9 mph - N/A   Clear
7:15 AM 32.0 °F 25.6 °F 26.6 °F 80% 29.96 in 10.0 mi SSW 6.9 mph - N/A   Clear
7:35 AM 33.8 °F 28.6 °F 26.6 °F 75% 29.97 in 10.0 mi WSW 5.8 mph - N/A   Clear
7:55 AM 33.8 °F 28.6 °F 26.6 °F 75% 29.98 in 10.0 mi WSW 5.8 mph - N/A   Clear
8:15 AM 35.6 °F 31.7 °F 26.6 °F 70% 30.00 in 10.0 mi WSW 4.6 mph - N/A   Clear
8:35 AM 35.6 °F 29.9 °F 28.4 °F 75% 30.00 in 10.0 mi SW 6.9 mph - N/A   Clear
8:55 AM 37.4 °F 32.8 °F 28.4 °F 70% 30.00 in 10.0 mi WSW 5.8 mph - N/A   Clear
9:15 AM 39.2 °F 33.6 °F 30.2 °F 70% 30.01 in 10.0 mi West 8.1 mph - N/A   Clear
9:35 AM 41.0 °F 36.4 °F 30.2 °F 65% 30.02 in 10.0 mi West 6.9 mph - N/A   Clear
9:55 AM 41.0 °F 37.1 °F 30.2 °F 65% 30.03 in 10.0 mi WNW 5.8 mph - N/A   Clear
10:15 AM 42.8 °F 40.1 °F 30.2 °F 61% 30.03 in 10.0 mi WNW 4.6 mph - N/A   Clear
10:35 AM 42.8 °F 41.1 °F 32.0 °F 66% 30.02 in 10.0 mi NW 3.5 mph - N/A   Clear
10:55 AM 44.6 °F 41.4 °F 32.0 °F 61% 30.03 in 10.0 mi NNW 5.8 mph - N/A   Clear
11:15 AM 44.6 °F 42.2 °F 32.0 °F 61% 30.03 in 10.0 mi North 4.6 mph - N/A   Clear
11:35 AM 46.4 °F 45.2 °F 32.0 °F 57% 30.03 in 10.0 mi North 3.5 mph - N/A   Clear
11:55 AM 48.2 °F - 32.0 °F 54% 30.03 in 10.0 mi NNW 4.6 mph - N/A   Clear
12:15 PM 50.0 °F - 32.0 °F 50% 30.03 in 10.0 mi NW 4.6 mph - N/A   Clear
12:35 PM 50.0 °F - 32.0 °F 50% 30.02 in 10.0 mi NW 4.6 mph - N/A   Clear
12:55 PM 50.0 °F - 32.0 °F 50% 30.02 in 10.0 mi NW 5.8 mph - N/A   Clear
1:15 PM 51.8 °F - 30.2 °F 44% 30.01 in 10.0 mi North 6.9 mph - N/A   Clear
1:35 PM 51.8 °F - 32.0 °F 47% 30.01 in 10.0 mi NNW 4.6 mph - N/A   Clear
1:55 PM 51.8 °F - 32.0 °F 47% 30.01 in 10.0 mi WNW 9.2 mph - N/A   Clear
2:15 PM 50.0 °F - 32.0 °F 50% 30.01 in 10.0 mi WNW 8.1 mph - N/A   Clear
2:35 PM 51.8 °F - 32.0 °F 47% 30.01 in 10.0 mi NW 5.8 mph - N/A   Clear
2:55 PM 50.0 °F - 32.0 °F 50% 30.01 in 10.0 mi WNW 9.2 mph - N/A   Clear
3:15 PM 51.8 °F - 32.0 °F 47% 30.02 in 10.0 mi NW 9.2 mph - N/A   Clear
3:35 PM 50.0 °F - 32.0 °F 50% 30.03 in 10.0 mi NW 9.2 mph - N/A   Clear
3:55 PM 50.0 °F - 32.0 °F 50% 30.03 in 10.0 mi NNW 8.1 mph - N/A   Clear
4:15 PM 51.8 °F - 32.0 °F 47% 30.03 in 10.0 mi NW 10.4 mph - N/A   Clear
4:35 PM 50.0 °F - 32.0 °F 50% 30.03 in 10.0 mi WNW 6.9 mph - N/A   Clear
4:55 PM 50.0 °F - 32.0 °F 50% 30.04 in 10.0 mi NW 9.2 mph - N/A   Clear
5:15 PM 50.0 °F - 32.0 °F 50% 30.04 in 10.0 mi NW 8.1 mph - N/A   Clear
5:35 PM 48.2 °F - 32.0 °F 54% 30.04 in 10.0 mi NW 8.1 mph - N/A   Clear
5:55 PM 46.4 °F 43.5 °F 32.0 °F 57% 30.05 in 10.0 mi NW 5.8 mph - N/A   Clear
6:15 PM 46.4 °F 43.5 °F 32.0 °F 57% 30.05 in 10.0 mi NW 5.8 mph - N/A   Clear
6:35 PM 44.6 °F 41.4 °F 32.0 °F 61% 30.07 in 10.0 mi NW 5.8 mph - N/A   Clear
6:55 PM 44.6 °F 42.2 °F 32.0 °F 61% 30.08 in 10.0 mi NW 4.6 mph - N/A   Scattered Clouds
7:15 PM 44.6 °F 40.2 °F 32.0 °F 61% 30.08 in 10.0 mi NW 8.1 mph - N/A   Mostly Cloudy
7:35 PM 44.6 °F 40.7 °F 32.0 °F 61% 30.09 in 10.0 mi NW 6.9 mph - N/A   Overcast
7:55 PM 42.8 °F 39.3 °F 32.0 °F 66% 30.09 in 10.0 mi NW 5.8 mph - N/A   Overcast
8:15 PM 42.8 °F 41.1 °F 32.0 °F 66% 30.09 in 10.0 mi WNW 3.5 mph - N/A   Overcast
8:35 PM 42.8 °F 41.1 °F 32.0 °F 66% 30.10 in 10.0 mi WNW 3.5 mph - N/A   Overcast
8:55 PM 42.8 °F 40.1 °F 32.0 °F 66% 30.12 in 10.0 mi WNW 4.6 mph - N/A   Overcast
9:15 PM 42.8 °F 38.0 °F 32.0 °F 66% 30.12 in 10.0 mi NW 8.1 mph - N/A   Overcast
9:35 PM 42.8 °F 36.2 °F 32.0 °F 66% 30.13 in 10.0 mi NW 12.7 mph - N/A   Overcast
9:55 PM 42.8 °F 36.2 °F 30.2 °F 61% 30.14 in 10.0 mi NW 12.7 mph - N/A   Overcast
10:15 PM 42.8 °F 38.6 °F 30.2 °F 61% 30.15 in 10.0 mi WNW 6.9 mph - N/A   Overcast
10:35 PM 42.8 °F 38.0 °F 28.4 °F 57% 30.15 in 10.0 mi NW 8.1 mph - N/A   Overcast
10:55 PM 42.8 °F 39.3 °F 30.2 °F 61% 30.14 in 10.0 mi NW 5.8 mph - N/A   Overcast
11:15 PM 41.0 °F 37.1 °F 30.2 °F 65% 30.14 in 10.0 mi NW 5.8 mph - N/A   Overcast
11:35 PM 41.0 °F 36.4 °F 30.2 °F 65% 30.15 in 10.0 mi WNW 6.9 mph - N/A   Overcast
11:55 PM 41.0 °F 37.1 °F 30.2 °F 65% 30.15 in 10.0 mi WNW 5.8 mph - N/A   Overcast